Regional Weather Roundup
Issued by NWS Sterling, VA

Home | Current Version | Previous Version | Text Only | Print | Product List | Glossary Off
Versions: 1 2 3 4 5 6 7 8 9 10 11 12 13 14 15 16 17 18 19 20 21 22 23 24 25 26 27 28 29 30 31 32 33 34 35 36 37 38 39 40 41 42 43 44 45 46 47 48 49 50

233
ASUS41 KLWX 181610
RWRLWX

REGIONAL WEATHER ROUNDUP
NATIONAL WEATHER SERVICE BALTIMORE MD/WASHINGTON DC
1100 AM EST WED JAN 18 2017

Note: "FAIR" indicates few or no clouds below 12,000 feet
with no significant weather and/or obstructions to visibility.
 TC=TEMPERATURE CELSIUS

 * =Non NWS site. Station does not report precipitation (e.g. rain,
    snow, etc.), thunder, or fog.

DCZ001-MDZ009-015-VAZ040>042-051-053>054-181700-
WASHINGTON METRO

CITY           SKY/WX    TMP DP  RH WIND       PRES   REMARKS
WASHINGTON NAT MOSUNNY   57  44  62 NW13G24   29.95F
DULLES         MOSUNNY   55  41  59 NW21G30   29.96F
ANDREWS AFB    MOSUNNY   55  42  61 NW17G28   29.93S
FT BELVOIR     MOSUNNY   57  41  55 NW24G36   29.94R
QUANTICO       MOSUNNY   58  43  57 N17G26    29.96R
LEESBURG*      PTSUNNY   57  46  67 NW20G36   29.96F
MANASSAS*      MOSUNNY  N/A N/A N/A N9G17     29.98R
GAITHERSBURG*  CLOUDY    50  43  76 NW12G22   29.99S

$$

MDZ006>007-011-014-181700-
BALTIMORE METRO

CITY           SKY/WX    TMP DP  RH WIND       PRES   REMARKS
BWI AIRPORT    PTSUNNY   53  46  77 NW13      29.93F
MD SCIENCE CTR   N/A     55  43  63 MISG      29.95R
MARTIN STATE   CLOUDY    55  52  88 NW13G18   29.94S
ANNAPOLIS      CLOUDY    52  43  71 NW9       29.94S
FORT MEADE*    CLOUDY    54  45  71 NW15G22   29.96F

$$

MDZ012-015-019>023-181700-
MARYLAND EASTERN SHORE

CITY           SKY/WX    TMP DP  RH WIND       PRES   REMARKS
OCEAN CITY     CLOUDY    52  48  86 NW12      29.92R
SALISBURY      CLOUDY    53  46  77 N9G17     29.92R
BAY BRIDGE AP* CLOUDY    46  46 100 NW10      29.94R
CAMBRIDGE*     MOSUNNY   45  45 100 N3        29.92F
EASTON*        MOSUNNY   48  45  87 NW6       29.97S

$$

MDZ017>025-181700-
SOUTHERN MARYLAND

CITY           SKY/WX    TMP DP  RH WIND       PRES   REMARKS
PATUXENT RIVER CLOUDY    46  45  96 CALM      29.93F FOG
ST INIGOES     CLOUDY    49  46  90 CALM      29.94S
LEONARDTOWN*   CLOUDY    46  45  93 CALM      29.94F

$$

MDZ003>005-181700-
NORTH CENTRAL MARYLAND

CITY           SKY/WX    TMP DP  RH WIND       PRES   REMARKS
FREDERICK*     LGT RAIN  50  46  87 NW7       29.99S
HAGERSTOWN APT CLOUDY    48  42  80 NW7       29.97R
WESTMINSTER*   DRIZZLE   46  45  93 NW9G16    29.94F

$$

MDZ501>502-181700-
WESTERN MARYLAND

CITY           SKY/WX    TMP DP  RH WIND       PRES   REMARKS
OAKLAND*         N/A     34  34 100 W14G22    30.00S FOG     WCI  24
CUMBERLAND*    MOSUNNY   50  37  62 W16G23    30.05S

$$

VAZ025>031-181700-
SHENANDOAH VALLEY

CITY           SKY/WX    TMP DP  RH WIND       PRES   REMARKS
WINCHESTER*    PTSUNNY   52  39  62 W17G26    29.98S
FRONT ROYAL*   PTSUNNY   50  43  76 W8        29.98F
LURAY*         PTSUNNY   54  41  62 W5        30.00F
NEW MARKET*    CLOUDY    52  37  57 W6        30.01S
STAUNTON*      MOSUNNY   53  36  53 NW8       30.03R
WAYNESBORO*    CLOUDY    52  34  51 NW7G17    30.02R

$$

WVZ021-048>050-054>055-181700-
EASTERN WEST VIRGINIA PANHANDLE

CITY           SKY/WX    TMP DP  RH WIND       PRES   REMARKS
MARTINSBURG    PTSUNNY   52  41  66 NW12      29.98S
PETERSBURG*    PTSUNNY   52  37  55 W6G16     30.05R

$$

VAZ036>039-050-181700-
CENTRAL FOOTHILLS

CITY           SKY/WX    TMP DP  RH WIND       PRES   REMARKS
CHARLOTTESVILL SUNNY     59  39  47 NW10G21   29.99R
CULPEPER*      SUNNY     57  44  62 NW10G18   29.97F
ORANGE*          N/A     57  46  67 W13       29.98S
GORDONSVILLE*  SUNNY     58  46  65 NW10G16   29.97S
WARRENTON*     SUNNY     58  40  50 NW13G23   29.96S

$$

VAZ055>057-181700-
NORTH AND CENTRAL PIEDMONT

CITY           SKY/WX    TMP DP  RH WIND       PRES   REMARKS
FREDERICKSBRG* SUNNY     58  45  62 NW16G22   29.95
STAFFORD*      SUNNY     56  44  64 NW17G25   29.99S

$$

NCZ024-NYZ072-PAZ021-071-VAZ022-071-181700-
OTHER REGIONAL OBSERVATIONS

CITY           SKY/WX    TMP DP  RH WIND       PRES   REMARKS
NEW YORK CITY  CLOUDY    40  38  93 MISG      29.96S
PHILADELPHIA   CLOUDY    43  39  86 N8        29.94S
PITTSBURGH     CLOUDY    40  36  86 W14       30.07R
ROANOKE        MOSUNNY   57  35  43 NW23G33   30.07R
RICHMOND       PTSUNNY   57  49  74 N9        29.95R
RALEIGH        MOSUNNY   67  50  54 VRB6G21   30.00R

$$

ANZ530>537-181700-
MARINE OBSERVATIONS

STATION/POSITION TIME  TEMP    WIND        PRES
                       AIR SEA DIR/SP/G
                 (UTC) (F)     (DEG/KT/KT) (MB)
THOMAS PT LIGHT  1600   52 39  320/ 12/ 13   N/A
BALT KEY BRIDGE  1548   49     300/ 10/ 12 1013.7S
COVE POINT       1548   40     360/  8/  9 1014.3F
LEWISETTA        1548   47 44   70/  4/  5 1013.7R
SOLOMONS ISLAND  1542   45 41  310/  2/  3   N/A
PINEY POINT      1548           70/  2/  3   N/A

$$





USA.gov is the U.S. government's official web portal to all federal, state and local government web resources and services.